Location: Dennis Manor
(64.8292°N, 147.5397°W)
Time: 08:55:51
(UTC+00:00)

Envisat - Pass Details

Date: 03 November 2020
Orbit: 764 x 766 km, 98.1° (Epoch: 05 December)

Event Time Altitude Azimuth Distance (km) Brightness Sun altitude
Rises 14:15:05 0° 19° (NNE) 3,250 6.7 -22.2°
Reaches altitude 10° 14:18:17 10° 40° (NE) 2,318 6.2 -21.8°
Maximum altitude 14:21:31 17° 79° (E) 1,888 6.0 -21.5°
Drops below altitude 10° 14:24:45 10° 119° (ESE) 2,308 6.2 -21.2°
Sets 14:27:54 0° 140° (SE) 3,230 6.7 -20.8°
